Orbital Elements at Epoch 2459200.5 (2020-Dec-17.0) TDB
Reference: JPL 18 (heliocentric ecliptic J2000)
Element | Value | Uncertainty (1-sigma) | Units |
e | .2007794365758695 | 4.9736e-08 | |
a | 3.092568821055452 | 2.3298e-08 | au |
q | 2.471644595591837 | 1.6492e-07 | au |
i | 2.934916344574111 | 5.8533e-06 | deg |
node | 151.8038741215009 | 0.00011836 | deg |
peri | 157.3333807903258 | 0.00011976 | deg |
M | 330.0604848359951 | 1.8842e-05 | deg |
tp | 2459365.703692030657 (2021-May-31.20369203) | 0.00010479 | TDB |
period | 1986.449306384851 5.44 | 2.2447e-05 6.146e-08 | d yr |
n | .1812278817500588 | 2.0479e-09 | deg/d |
Q | 3.713493046519066 | 2.7975e-08 | au |
|
| | Orbit Determination Parameters
Additional Information
|